Regional Weather Roundup
Issued by NWS Raleigh/Durham, NC

Home | Current Version | Previous Version | Text Only | Print | Product List | Glossary On
Versions: 1 2 3 4 5 6 7 8 9 10 11 12 13 14 15 16 17 18 19 20 21 22 23 24 25 26 27 28 29 30 31 32 33 34 35 36 37 38 39 40 41 42 43 44 45 46 47 48 49 50
000
ASUS42 KRAH 202010
RWRRAH
NORTH CAROLINA WEATHER ROUNDUP
NATIONAL WEATHER SERVICE RALEIGH NC
400 PM EDT WED AUG 20 2014

NOTE: "FAIR" INDICATES FEW OR NO CLOUDS BELOW 12,000 FEET WITH NO
SIGNIFICANT WEATHER AND/OR OBSTRUCTIONS TO VISIBILITY.

NCZ001-053-055-056-065-067-202100-
WESTERN NORTH CAROLINA

CITY           SKY/WX    TMP DP  RH WIND       PRES   REMARKS
ASHEVILLE      SUNNY     87  66  49 VRB5      30.07F
JEFFERSON      MOSUNNY   78  60  52 W9        30.12S
MORGANTON      MOSUNNY   87  61  41 S8        30.06F
HICKORY        MOSUNNY   85  70  60 S6        30.02F
RUTHERFORDTON  SUNNY     78  68  69 CALM      30.03F
MOUNT AIRY     SUNNY     85  72  63 SW6       30.02F
BOONE          MOSUNNY   80  61  52 W9        30.13F
$$

NCZ021-022-025-041-071-084-088-202100-
CENTRAL NORTH CAROLINA

CITY           SKY/WX    TMP DP  RH WIND       PRES   REMARKS
CHARLOTTE      PTSUNNY   89  69  51 W7        30.00S
GREENSBORO     PTSUNNY   88  69  53 SW8       29.98F
WINSTON-SALEM  SUNNY     86  66  51 W7        30.00S
RALEIGH-DURHAM PTSUNNY   86  71  60 CALM      29.97R
FORT BRAGG     PTSUNNY   88  73  60 S6        29.96S HX  96
FAYETTEVILLE   PTSUNNY   89  74  60 S5        29.96S HX  98
BURLINGTON     MOSUNNY   88  70  55 S7        29.97F
LAURINBURG     SUNNY     87  71  58 E3        29.97S
$$

NCZ011-015-027-028-043-044-047-080-103-202100-
NORTHEASTERN NORTH CAROLINA

CITY           SKY/WX    TMP DP  RH WIND       PRES   REMARKS
ROCKY MT-WILSO SUNNY     87  70  56 CALM      29.96F
GREENVILLE     MOSUNNY   88  70  55 NW6       29.98S
WASHINGTON     SUNNY     86  71  60 NW3       29.95F
ELIZABETH CITY SUNNY     84  70  62 E6        29.96S
MANTEO         MOSUNNY   81  72  74 NE8       29.97R
CAPE HATTERAS  PTSUNNY   81  73  76 VRB5      29.97R
$$

NCZ078-087-090-091-093-098-101-202100-
SOUTHEASTERN NORTH CAROLINA

CITY           SKY/WX    TMP DP  RH WIND       PRES   REMARKS
LUMBERTON      MOSUNNY   84  72  67 SE6       29.96F
GOLDSBORO      PTSUNNY   87  76  68 E2        29.95R HX  98
KINSTON        PTSUNNY   88  72  58 CALM      29.97S
KENANSVILLE    PTSUNNY   87  69  54 CALM      29.97R
NEW BERN       SUNNY     89  71  55 CALM      29.96F HX  95
CHERRY POINT   PTSUNNY   87  72  60 E3        29.96F
BEAUFORT       SUNNY     85  75  72 SW10      29.96S
JACKSONVILLE   PTSUNNY   83  75  77 S10       29.96S
WILMINGTON     CLOUDY    78  73  84 W7        29.99R
$$




USA.gov is the U.S. government's official web portal to all federal, state and local government web resources and services.